Miscellaneous Local Product
Issued by NWS Hastings, NE

Home | Current Version | Previous Version | Graphics & Text | Print | Product List | Glossary On
Versions: 1 2 3 4 5 6 7 8 9 10 11 12 13 14 15 16 17 18 19 20 21 22 23 24 25 26 27 28 29 30 31 32 33 34 35 36 37 38 39 40 41 42 43 44 45 46 47 48 49 50
000
AXUS43 KGID 180702
MISGRI

GID CWA HOURLY WEATHER ROUNDUP
NATIONAL WEATHER SERVICE HASTINGS NE
100 AM CST WED JAN 18 2017

NOTE: "FAIR" INDICATES FEW OR NO CLOUDS BELOW 12,000 FEET WITH NO
SIGNIFICANT WEATHER AND/OR OBSTRUCTIONS TO VISIBILITY.

...SOUTH CENTRAL NEBRASKA...

CITY           SKY/WX    TMP DP  RH WIND       PRES   REMARKS
GRAND ISLAND   CLOUDY    34  30  85 SW14      30.04F WCI  25
HASTINGS       CLOUDY    34  28  79 SW6       30.07F WCI  29
KEARNEY        CLOUDY    34  27  75 SW9       30.05F WCI  26
ORD            CLEAR     33  25  72 SW15      29.99F WCI  23
YORK           CLOUDY    32  30  93 SW9       30.06F WCI  24
AURORA         CLOUDY    32  30  92 SW9       30.05F WCI  24
LEXINGTON      CLOUDY    34  28  78 W7        30.03F WCI  28
HOLDREGE       CLEAR     32  26  80 SW7       30.05F WCI  26
HEBRON         CLOUDY    31  28  90 W3        30.10S

...NEBRASKA PANHANDLE...

CITY           SKY/WX    TMP DP  RH WIND       PRES   REMARKS
CHADRON        CLOUDY    22  15  75 W6        29.92F WCI  14
ALLIANCE       CLOUDY    18  12  77 SW6       29.94S WCI  10
SCOTTSBLUFF    CLOUDY    26  15  63 CALM      29.97S
SIDNEY         CLOUDY    24  20  84 W8        29.98S WCI  15

...WESTERN AND NORTH CENTRAL NEBRASKA...

CITY           SKY/WX    TMP DP  RH WIND       PRES   REMARKS
VALENTINE      CLOUDY    25  19  78 SW6       29.90F WCI  18
AINSWORTH      CLOUDY    31  27  83 SW10      29.91S WCI  23
ONEILL         CLOUDY    31  27  85 SW10      29.95S WCI  23
BROKEN BOW     CLOUDY    35  28  75 SW13      30.00F WCI  26
IMPERIAL       CLOUDY    31  27  85 SW7       30.01F WCI  24
NORTH PLATTE   CLOUDY    32  27  81 CALM      30.01F
MCCOOK         CLOUDY    29  27  92 SW8       30.04F WCI  21

...EASTERN NEBRASKA...

CITY           SKY/WX    TMP DP  RH WIND       PRES   REMARKS
NORFOLK        CLOUDY    31  28  89 S15       30.00S WCI  20
SO SIOUX CITY  CLOUDY    27  25  92 SE9       30.03S FOG     WCI  18
TEKAMAH        CLOUDY    30  27  88 S12       30.08R FOG     WCI  20
COLUMBUS       CLEAR     34  28  80 SW8       30.06S WCI  27
ALBION         CLOUDY    31  27  83 S3        30.02S
OMAHA EPPLEY   CLEAR     25  20  81 SE10      30.11S FOG     WCI  15
OFFUTT AFB     CLEAR     26  26 100 SE5       30.11S WCI  21
MILLARD        CLEAR     30  28  94 CALM      30.11S
LINCOLN        CLEAR     29  27  92 SE3       30.10F
NEBRASKA CITY  CLOUDY    28  28 100 SW6       30.10F WCI  22
BEATRICE       CLOUDY    28  26  96 CALM      30.11R
FALLS CITY     CLOUDY    27  26  96 S9        30.14R WCI  18

...NORTHERN KANSAS...

CITY           SKY/WX    TMP DP  RH WIND       PRES   REMARKS
GOODLAND       CLEAR     32  29  88 SW12      30.02F WCI  23
HILL CITY      CLEAR     31  28  89 W7        30.07F WCI  24
NORTON         SUNNY     30  25  80 SW6       30.05  WCI  24
PHILLIPSBURG   CLEAR     34  27  75 SW3       30.08F
SMITH CENTER   PTCLDY    27  25  93 CALM      30.09F
HAYS           PTCLDY    31  27  85 SW7       30.11R WCI  24
RUSSELL        PTCLDY    32  28  85 SW12      30.10R WCI  23
CONCORDIA      CLOUDY    35  30  82 SW8       30.09F WCI  29
SALINA           N/A    N/A N/A N/A MISG        N/A
TOPEKA         CLOUDY    26  23  88 CALM      30.15S FOG



USA.gov is the U.S. government's official web portal to all federal, state and local government web resources and services.